AA3CS-1 Weather Reports


time (UTC)temp
C
wind
direction
speed
KPH
gust
KPH
rain 1hr
cm
rain 24hr
cm
rain mn
cm
humidity
%
barometer
mb
20260508095517 7 225 1.6 4.8 0.00 0.00 0.00 74 1012.8
20260508095117 7 270 1.6 6.4 0.00 0.00 0.00 75 1012.6
20260508094537 7 248 1.6 6.4 0.00 0.00 0.00 75 1012.7
20260508094017 7 248 1.6 4.8 0.00 0.00 0.00 75 1012.7
20260508093517 7 0.0 3.2 0.00 0.00 0.00 75 1012.6
20260508093017 7 248 1.6 4.8 0.00 0.00 0.00 75 1012.9
20260508092617 7 248 3.2 8.0 0.00 0.00 0.00 74 1012.9
20260508092036 7 203 3.2 9.7 0.00 0.00 0.00 75 1012.9
20260508091517 7 248 3.2 11.3 0.00 0.00 0.00 75 1012.9
20260508091016 7 270 4.8 16.1 0.00 0.00 0.00 75 1013.1
20260508090537 7 293 4.8 16.1 0.00 0.00 0.00 75 1012.9
20260508090016 7 248 6.4 19.3 0.00 0.00 0.00 76 1013.1
20260508085537 6 203 8.0 19.3 0.00 0.00 0.00 77 1013.0
20260508085036 6 180 4.8 14.5 0.00 0.00 0.00 77 1012.9
20260508084516 6 270 1.6 6.4 0.00 0.00 0.00 76 1013.2
20260508084017 6 293 1.6 8.0 0.00 0.00 0.00 76 1013.2
20260508083516 6 180 1.6 8.0 0.00 0.00 0.00 76 1013.0
20260508083037 6 180 3.2 9.7 0.00 0.00 0.00 76 1012.9
20260508082537 6 158 1.6 6.4 0.00 0.00 0.00 76 1013.0
20260508082016 6 180 4.8 14.5 0.00 0.00 0.00 76 1013.1
20260508081516 6 180 1.6 9.7 0.00 0.00 0.00 77 1013.1
20260508081016 6 203 1.6 4.8 0.00 0.00 0.00 76 1013.2
20260508080517 6 203 1.6 6.4 0.00 0.00 0.00 76 1013.2
20260508080017 6 158 1.6 9.7 0.00 0.00 0.00 76 1013.2
20260508075517 6 203 3.2 11.3 0.00 0.00 0.00 75 1013.2
20260508075016 7 225 1.6 8.0 0.00 0.00 0.00 75 1013.3
20260508074537 7 203 1.6 8.0 0.00 0.00 0.00 75 1013.4
20260508074017 7 248 3.2 9.7 0.00 0.00 0.00 74 1013.4
20260508073517 7 180 1.6 6.4 0.00 0.00 0.00 75 1013.4
20260508073017 7 203 3.2 9.7 0.00 0.00 0.00 74 1013.5
20260508072516 7 203 3.2 14.5 0.00 0.00 0.00 75 1013.5
20260508072056 7 113 1.6 6.4 0.00 0.00 0.00 75 1013.6
20260508071516 7 225 1.6 6.4 0.00 0.00 0.00 76 1013.5
20260508071016 7 0.0 1.6 0.00 0.00 0.00 76 1013.6
20260508070516 7 0.0 4.8 0.00 0.00 0.00 76 1013.6
20260508070016 7 248 1.6 8.0 0.00 0.00 0.00 76 1013.7
20260508065516 7 248 1.6 6.4 0.00 0.00 0.00 76 1013.7
20260508065017 7 248 3.2 17.7 0.00 0.00 0.00 76 1013.8
20260508064516 7 248 6.4 17.7 0.00 0.00 0.00 71 1013.8
20260508064016 7 225 4.8 14.5 0.00 0.00 0.00 71 1013.7
20260508063516 7 203 1.6 6.4 0.00 0.00 0.00 72 1013.7
20260508063016 7 180 3.2 14.5 0.00 0.00 0.00 70 1013.7
20260508062537 7 180 3.2 12.9 0.00 0.00 0.00 71 1013.6
20260508062016 7 180 1.6 6.4 0.00 0.00 0.00 71 1013.6
20260508061516 7 180 1.6 4.8 0.00 0.00 0.00 72 1013.7
20260508061037 7 203 3.2 8.0 0.00 0.00 0.00 71 1013.6
20260508060516 7 203 1.6 4.8 0.00 0.00 0.00 71 1013.6
20260508060036 7 203 4.8 11.3 0.00 0.00 0.00 71 1013.6
20260508055516 7 180 3.2 12.9 0.00 0.00 0.00 70 1013.5
20260508055016 7 180 1.6 6.4 0.00 0.00 0.00 71 1013.6
20260508054516 6 180 1.6 6.4 0.00 0.00 0.00 71 1013.5
20260508054057 6 0.0 3.2 0.00 0.00 0.00 73 1013.7
20260508053516 6 225 1.6 6.4 0.00 0.00 0.00 72 1013.7
20260508053016 6 225 1.6 3.2 0.00 0.00 0.00 72 1013.7
20260508052516 6 225 1.6 3.2 0.00 0.00 0.00 72 1013.7
20260508052016 6 0.0 3.2 0.00 0.00 0.00 72 1013.9
20260508051516 6 0.0 3.2 0.00 0.00 0.00 72 1013.9
20260508051016 6 225 1.6 3.2 0.00 0.00 0.00 72 1013.9
20260508050516 6 0.0 3.2 0.00 0.00 0.00 72 1013.9
20260508050016 6 0.0 0.0 0.00 0.00 0.00 70 1013.9
20260508045516 6 0.0 0.0 0.00 0.00 0.00 70 1013.9
20260508045016 7 0.0 1.6 0.00 0.00 0.00 69 1013.9
20260508044536 7 0.0 1.6 0.00 0.00 0.00 69 1013.9
20260508044016 7 0.0 1.6 0.00 0.00 0.00 69 1013.8
20260508043516 7 0.0 1.6 0.00 0.00 0.00 68 1013.8
20260508043016 7 0.0 1.6 0.00 0.00 0.00 70 1013.8
20260508042516 7 0.0 3.2 0.00 0.00 0.00 68 1013.9
20260508042016 7 225 1.6 3.2 0.00 0.00 0.00 68 1013.8
20260508041516 7 248 1.6 4.8 0.00 0.00 0.00 68 1013.9
20260508041016 7 0.0 3.2 0.00 0.00 0.00 68 1014.1
20260508040516 7 0.0 3.2 0.00 0.00 0.00 68 1014.2
20260508040016 7 0.0 3.2 0.00 0.00 0.00 67 1014.2
20260508035516 7 248 1.6 4.8 0.00 0.00 0.00 66 1014.3
20260508035016 8 248 1.6 4.8 0.00 0.00 0.00 66 1014.3
20260508034516 8 248 1.6 4.8 0.00 0.00 0.00 65 1014.2
20260508034016 8 270 3.2 6.4 0.00 0.00 0.00 63 1014.3
20260508033516 8 293 3.2 11.3 0.00 0.00 0.00 63 1014.3
20260508033016 8 270 3.2 6.4 0.00 0.00 0.00 65 1014.3
20260508032516 8 270 8.0 16.1 0.00 0.00 0.00 64 1014.4
20260508032016 7 248 9.7 22.5 0.00 0.00 0.00 69 1014.4
20260508031516 7 225 3.2 6.4 0.00 0.00 0.00 69 1014.5
20260508031016 7 293 1.6 4.8 0.00 0.00 0.00 69 1014.4
20260508030516 7 293 1.6 4.8 0.00 0.00 0.00 69 1014.3
20260508030037 6 293 1.6 3.2 0.00 0.00 0.00 69 1014.3
20260508025516 6 0.0 1.6 0.00 0.00 0.00 69 1014.2
20260508025016 6 0.0 3.2 0.00 0.00 0.00 70 1014.2
20260508024516 6 293 3.2 6.4 0.00 0.00 0.00 70 1014.1
20260508024016 6 0.0 3.2 0.00 0.00 0.00 69 1014.0
20260508023516 6 293 1.6 3.2 0.00 0.00 0.00 67 1013.9
20260508023016 6 0.0 1.6 0.00 0.00 0.00 70 1013.9
20260508022516 6 0.0 3.2 0.00 0.00 0.00 73 1013.8
20260508022036 5 0.0 3.2 0.00 0.00 0.00 71 1013.7
20260508021517 5 0.0 3.2 0.00 0.00 0.00 72 1013.7
20260508021016 5 0.0 0.0 0.00 0.00 0.00 78 1013.6
20260508020516 6 0.0 0.0 0.00 0.00 0.00 79 1013.6
20260508020016 6 0.0 0.0 0.00 0.00 0.00 79 1013.6
20260508015516 6 0.0 0.0 0.00 0.00 0.00 77 1013.6
20260508015016 6 0.0 0.0 0.00 0.00 0.00 77 1013.4
20260508014516 6 0.0 0.0 0.00 0.00 0.00 76 1013.4
20260508014016 6 0.0 0.0 0.00 0.00 0.00 70 1013.3
20260508013536 6 0.0 0.0 0.00 0.00 0.00 70 1013.3
20260508013037 6 0.0 0.0 0.00 0.00 0.00 74 1013.3
20260508012516 6 0.0 3.2 0.00 0.00 0.00 71 1013.2
20260508012016 6 0.0 3.2 0.00 0.00 0.00 67 1013.1
20260508011516 7 0.0 0.0 0.00 0.00 0.00 67 1013.2
20260508011016 7 0.0 0.0 0.00 0.00 0.00 63 1013.2
20260508010516 7 0.0 0.0 0.00 0.00 0.00 61 1013.1
20260508010016 7 0.0 1.6 0.00 0.00 0.00 59 1013.1
20260508005516 7 0.0 3.2 0.00 0.00 0.00 57 1013.0
20260508005016 8 0.0 0.0 0.00 0.00 0.00 55 1013.1
20260508004516 8 0.0 0.0 0.00 0.00 0.00 55 1013.1
20260508004016 8 0.0 0.0 0.00 0.00 0.00 55 1013.1
20260508003516 9 0.0 3.2 0.00 0.00 0.00 52 1013.2
20260508003016 9 293 1.6 4.8 0.00 0.00 0.00 50 1013.1
20260508002516 10 0.0 3.2 0.00 0.00 0.00 49 1013.0
20260508002016 10 293 1.6 4.8 0.00 0.00 0.00 49 1013.0
20260508001536 10 270 1.6 6.4 0.00 0.00 0.00 48 1012.9
20260508001016 10 270 3.2 9.7 0.00 0.00 0.00 46 1012.9
20260508000516 10 338 4.8 9.7 0.00 0.00 0.00 45 1012.8
20260508000016 10 248 8.0 16.1 0.00 0.00 0.00 45 1012.8
20260507235516 11 293 6.4 12.9 0.00 0.00 0.00 43 1012.7
20260507235016 11 270 8.0 17.7 0.00 0.00 0.00 44 1012.6
20260507234516 11 270 6.4 14.5 0.00 0.00 0.00 44 1012.6
20260507234016 11 315 4.8 11.3 0.00 0.00 0.00 46 1012.6
20260507233536 11 315 6.4 14.5 0.00 0.00 0.00 44 1012.6
20260507233016 11 293 8.0 20.9 0.00 0.00 0.00 43 1012.6
20260507232516 11 293 8.0 25.7 0.00 0.00 0.00 43 1012.6
20260507232036 12 270 4.8 11.3 0.00 0.00 0.00 45 1012.5
20260507231516 12 338 3.2 4.8 0.00 0.00 0.00 45 1012.5
20260507231036 11 315 6.4 14.5 0.00 0.00 0.00 46 1012.4
20260507230516 11 338 6.4 14.5 0.00 0.00 0.00 45 1012.5
20260507230016 11 315 6.4 12.9 0.00 0.00 0.00 48 1012.5
20260507225536 11 315 4.8 12.9 0.00 0.00 0.00 47 1012.6
20260507225015 11 315 6.4 14.5 0.00 0.00 0.00 46 1012.6
20260507224516 12 315 8.0 16.1 0.00 0.00 0.00 44 1012.7
20260507224016 12 315 8.0 14.5 0.00 0.00 0.00 44 1012.7
20260507223516 12 315 4.8 9.7 0.00 0.00 0.00 43 1012.6
20260507223036 12 293 8.0 17.7 0.00 0.00 0.00 43 1012.6
20260507222516 12 315 6.4 16.1 0.00 0.00 0.00 46 1012.6
20260507222016 12 315 9.7 19.3 0.00 0.00 0.00 46 1012.6
20260507221516 12 315 8.0 16.1 0.00 0.00 0.00 44 1012.6
20260507221015 11 315 8.0 16.1 0.00 0.00 0.00 47 1012.5
20260507220536 11 315 11.3 19.3 0.00 0.00 0.00 44 1012.5
20260507220016 11 315 9.7 22.5 0.00 0.00 0.00 45 1012.4
20260507215516 12 293 9.7 25.7 0.00 0.00 0.00 44 1012.5
20260507215016 12 270 12.9 24.1 0.00 0.00 0.00 40 1012.5
20260507214516 12 293 9.7 20.9 0.00 0.00 0.00 41 1012.5
20260507214036 12 270 11.3 25.7 0.00 0.00 0.00 42 1012.4
20260507213536 12 270 12.9 25.7 0.00 0.00 0.00 43 1012.3
20260507213016 12 270 11.3 22.5 0.00 0.00 0.00 45 1012.2
20260507212516 12 315 12.9 24.1 0.00 0.00 0.00 43 1012.2
20260507212016 12 315 14.5 24.1 0.00 0.00 0.00 45 1012.2
20260507211515 12 270 16.1 27.4 0.00 0.00 0.00 42 1012.2
20260507211016 12 315 14.5 30.6 0.00 0.00 0.00 40 1012.2
20260507210536 12 248 6.4 17.7 0.00 0.00 0.00 47 1012.1
20260507210015 12 270 11.3 22.5 0.00 0.00 0.00 45 1012.1
20260507205556 12 270 11.3 22.5 0.00 0.00 0.00 48 1012.1
20260507205015 12 293 14.5 24.1 0.00 0.00 0.00 45 1012.0
20260507204516 12 270 9.7 22.5 0.00 0.00 0.00 47 1012.1
20260507204036 12 293 9.7 22.5 0.00 0.00 0.00 48 1012.1
20260507203536 12 293 12.9 37.0 0.00 0.00 0.00 45 1011.9
20260507203016 12 270 11.3 37.0 0.00 0.00 0.00 45 1012.0
20260507202516 12 270 8.0 22.5 0.00 0.00 0.00 47 1011.9
20260507202016 12 270 8.0 22.5 0.00 0.00 0.00 44 1011.9
20260507201515 12 270 14.5 30.6 0.00 0.00 0.00 46 1012.1
20260507201015 12 270 9.7 19.3 0.00 0.00 0.00 48 1012.1
20260507200515 12 270 12.9 25.7 0.00 0.00 0.00 47 1012.0
20260507200016 12 293 11.3 29.0 0.00 0.00 0.00 47 1011.9
20260507195516 12 270 12.9 20.9 0.00 0.00 0.00 45 1012.0
20260507195015 12 270 11.3 17.7 0.00 0.00 0.00 46 1011.9
20260507194516 12 248 8.0 17.7 0.00 0.00 0.00 48 1012.1
20260507194015 12 248 9.7 22.5 0.00 0.00 0.00 47 1012.2
20260507193515 13 270 8.0 20.9 0.00 0.00 0.00 47 1012.1
20260507193015 12 248 6.4 14.5 0.00 0.00 0.00 49 1012.3
20260507192516 12 270 12.9 22.5 0.00 0.00 0.00 45 1012.3
20260507192015 12 248 12.9 25.7 0.00 0.00 0.00 45 1012.4
20260507191535 13 293 9.7 20.9 0.00 0.00 0.00 49 1012.3
20260507191016 13 203 6.4 22.5 0.00 0.00 0.00 46 1012.4
20260507190516 13 293 9.7 17.7 0.00 0.00 0.00 50 1012.4
20260507190015 13 293 9.7 19.3 0.00 0.00 0.00 50 1012.5
20260507185515 13 270 8.0 20.9 0.00 0.00 0.00 49 1012.5
20260507185016 12 293 8.0 19.3 0.00 0.00 0.00 48 1012.5
20260507184516 12 293 8.0 20.9 0.00 0.00 0.00 48 1012.5
20260507184015 12 293 11.3 25.7 0.00 0.00 0.00 47 1012.6
20260507183515 12 270 11.3 25.7 0.00 0.00 0.00 46 1012.6
20260507183015 12 293 8.0 22.5 0.00 0.00 0.00 46 1012.6
20260507182515 12 248 9.7 22.5 0.00 0.00 0.00 52 1012.7
20260507182038 12 293 8.0 19.3 0.00 0.00 0.00 47 1012.7
20260507181517 12 270 9.7 17.7 0.00 0.00 0.00 48 1012.7
20260507181017 12 248 9.7 22.5 0.00 0.00 0.00 46 1012.7
20260507180518 12 225 4.8 17.7 0.00 0.00 0.00 50 1012.6
20260507180017 12 203 8.0 24.1 0.00 0.00 0.00 52 1012.7
20260507175517 12 270 8.0 19.3 0.00 0.00 0.00 52 1012.7
20260507175017 11 293 12.9 22.5 0.00 0.00 0.00 50 1012.6
20260507174618 11 270 14.5 22.5 0.00 0.00 0.00 48 1012.8
20260507174018 12 270 11.3 24.1 0.00 0.00 0.00 49 1012.7
20260507173517 12 270 6.4 19.3 0.00 0.00 0.00 50 1012.7
20260507173016 12 203 4.8 14.5 0.00 0.00 0.00 50 1012.7
20260507172517 12 270 6.4 14.5 0.00 0.00 0.00 49 1012.8
20260507172022 11 225 4.8 17.7 0.00 0.00 0.00 51 1012.8
20260507171537 11 293 6.4 16.1 0.00 0.00 0.00 48 1012.8
20260507171017 12 315 8.0 14.5 0.00 0.00 0.00 45 1013.0
20260507170517 12 293 9.7 17.7 0.00 0.00 0.00 47 1013.0
20260507170037 11 225 8.0 20.9 0.00 0.00 0.00 50 1012.9
20260507165557 11 315 11.3 22.5 0.00 0.00 0.00 44 1012.9
20260507165017 12 270 6.4 17.7 0.00 0.00 0.00 48 1013.0
20260507164517 12 293 4.8 11.3 0.00 0.00 0.00 47 1013.0
20260507164017 12 293 8.0 16.1 0.00 0.00 0.00 44 1013.0
20260507163557 12 248 8.0 22.5 0.00 0.00 0.00 49 1013.0
20260507163017 12 270 6.4 14.5 0.00 0.00 0.00 52 1013.1
20260507162517 12 180 4.8 16.1 0.00 0.00 0.00 49 1013.1
20260507162037 12 293 9.7 22.5 0.00 0.00 0.00 46 1013.1
20260507161517 11 270 12.9 22.5 0.00 0.00 0.00 46 1013.0
20260507161017 12 270 9.7 17.7 0.00 0.00 0.00 48 1013.1
20260507160517 12 248 6.4 16.1 0.00 0.00 0.00 48 1013.1
20260507160037 12 315 4.8 16.1 0.00 0.00 0.00 55 1013.1
20260507155537 11 315 6.4 16.1 0.00 0.00 0.00 52 1013.0
20260507155017 11 270 8.0 19.3 0.00 0.00 0.00 50 1013.0
20260507154517 11 315 9.7 19.3 0.00 0.00 0.00 52 1012.9
20260507154017 11 293 12.9 20.9 0.00 0.00 0.00 49 1013.1
20260507153517 11 270 9.7 20.9 0.00 0.00 0.00 50 1013.0
20260507153037 11 270 6.4 17.7 0.00 0.03 0.00 52 1013.0
20260507152517 11 270 6.4 17.7 0.00 0.03 0.00 49 1013.0
20260507152017 11 270 9.7 17.7 0.00 0.03 0.00 50 1013.0
20260507151517 12 248 8.0 20.9 0.00 0.03 0.00 50 1013.2
20260507151037 12 270 8.0 19.3 0.00 0.03 0.00 53 1013.3
20260507150517 12 270 6.4 14.5 0.00 0.03 0.00 55 1013.3
20260507150017 11 270 4.8 12.9 0.00 0.03 0.00 53 1013.2
20260507145517 11 293 4.8 11.3 0.00 0.03 0.00 52 1013.2
20260507145017 11 270 4.8 11.3 0.00 0.03 0.00 56 1013.3
20260507144517 11 248 4.8 12.9 0.00 0.03 0.00 57 1013.3
20260507144017 11 225 3.2 6.4 0.00 0.03 0.00 56 1013.3
20260507143517 11 203 4.8 11.3 0.00 0.03 0.00 55 1013.3
20260507143017 11 270 3.2 11.3 0.00 0.03 0.00 60 1013.2
20260507142517 11 270 4.8 14.5 0.00 0.03 0.00 54 1013.3
20260507142017 11 270 4.8 17.7 0.00 0.03 0.00 61 1013.3
20260507141517 11 248 3.2 11.3 0.00 0.03 0.00 63 1013.5
20260507141017 10 203 3.2 11.3 0.00 0.03 0.00 64 1013.4
20260507140517 10 270 4.8 12.9 0.00 0.03 0.00 64 1013.5
20260507140017 10 203 6.4 16.1 0.00 0.03 0.00 63 1013.6
20260507135517 10 270 6.4 11.3 0.00 0.03 0.00 64 1013.6
20260507135017 10 203 4.8 8.0 0.00 0.03 0.00 67 1013.6
20260507134517 9 293 4.8 12.9 0.00 0.03 0.00 66 1013.7
20260507134017 9 225 6.4 17.7 0.00 0.03 0.00 70 1013.7
20260507133517 8 248 3.2 11.3 0.00 0.03 0.00 69 1013.6
20260507133017 8 293 6.4 12.9 0.00 0.03 0.00 68 1013.7
20260507132517 8 293 3.2 12.9 0.00 0.03 0.00 72 1013.7
20260507132017 8 248 4.8 12.9 0.00 0.03 0.00 70 1013.7
20260507131517 8 293 1.6 6.4 0.00 0.03 0.00 71 1013.8
20260507131017 8 225 3.2 6.4 0.00 0.03 0.00 75 1013.6
20260507130537 7 225 1.6 6.4 0.00 0.03 0.00 74 1013.6
20260507130017 7 225 1.6 6.4 0.00 0.03 0.00 76 1013.5
20260507125517 7 225 1.6 6.4 0.00 0.03 0.00 76 1013.6
20260507125017 7 225 1.6 6.4 0.00 0.03 0.00 76 1013.6
20260507124517 7 203 1.6 4.8 0.00 0.03 0.00 76 1013.6
20260507124057 7 203 3.2 8.0 0.00 0.03 0.00 74 1013.6
20260507123516 7 270 3.2 11.3 0.00 0.03 0.00 75 1013.6
20260507123017 7 248 1.6 4.8 0.00 0.03 0.00 76 1013.6
20260507122517 7 203 1.6 11.3 0.00 0.03 0.00 76 1013.5
20260507122016 7 203 1.6 4.8 0.00 0.03 0.00 76 1013.5
20260507121557 7 203 1.6 4.8 0.00 0.03 0.00 74 1013.5
20260507121017 7 135 1.6 4.8 0.00 0.03 0.00 77 1013.5
20260507120517 6 180 1.6 4.8 0.00 0.03 0.00 75 1013.5
20260507120017 6 158 1.6 8.0 0.00 0.03 0.00 75 1013.5
20260507115517 6 158 1.6 6.4 0.00 0.03 0.00 77 1013.4
20260507115017 6 158 3.2 9.7 0.00 0.03 0.00 77 1013.4
20260507114517 6 158 3.2 9.7 0.00 0.03 0.00 77 1013.5
20260507114017 6 158 3.2 8.0 0.00 0.03 0.00 78 1013.5
20260507113557 5 135 3.2 8.0 0.00 0.03 0.00 79 1013.4
20260507113017 5 113 3.2 4.8 0.00 0.03 0.00 81 1013.4
20260507112517 5 113 1.6 4.8 0.00 0.03 0.00 82 1013.3
20260507112017 4 113 1.6 4.8 0.00 0.03 0.00 84 1013.1
20260507111517 3 113 1.6 3.2 0.00 0.03 0.00 87 1013.1
20260507111057 3 113 3.2 6.4 0.00 0.03 0.00 87 1013.1
20260507110517 2 68 1.6 3.2 0.00 0.03 0.00 89 1013.0
20260507110017 2 0.0 3.2 0.00 0.03 0.00 89 1013.0
20260507105517 2 0.0 1.6 0.00 0.03 0.00 89 1013.0
20260507105036 2 0.0 3.2 0.00 0.03 0.00 89 1012.9
20260507104537 2 0.0 0.0 0.00 0.03 0.00 89 1012.9
20260507104037 2 0.0 0.0 0.00 0.03 0.00 90 1012.9
20260507103517 2 0.0 0.0 0.00 0.03 0.00 90 1012.9
20260507103016 2 0.0 0.0 0.00 0.03 0.00 90 1012.8
20260507102517 2 0.0 1.6 0.00 0.03 0.00 90 1012.8
20260507102016 2 0.0 0.0 0.00 0.03 0.00 89 1012.9
20260507101537 2 0.0 0.0 0.00 0.03 0.00 90 1012.9
20260507101017 2 0.0 0.0 0.00 0.03 0.00 90 1012.9
20260507100516 2 0.0 0.0 0.00 0.03 0.00 89 1012.9
20260507100017 2 0.0 0.0 0.00 0.03 0.00 89 1012.8